DW0664 Weather Reports


Display with metric or nautical units.
time (UTC)temp
F
wind
direction
speed
MPH
gust
MPH
rain 1hr
in
rain 24hr
in
rain mn
in
humidity
%
barometer
mb
20260510082818 72 70 0.0 2.0 0.00 0.00 0.00 90 1012.7
20260510082316 72 68 0.0 2.0 0.00 0.00 0.00 90 1012.8
20260510081814 72 98 0.0 2.0 0.00 0.00 0.00 90 1012.7
20260510081310 72 96 1.0 1.0 0.00 0.00 0.00 90 1012.8
20260510080806 72 69 0.0 0.0 0.00 0.00 0.00 91 1012.8
20260510080301 72 73 0.0 1.0 0.00 0.00 0.00 91 1012.6
20260510075759 72 67 0.0 2.0 0.00 0.00 0.00 91 1012.9
20260510075256 72 88 1.0 4.0 0.00 0.00 0.00 91 1012.8
20260510074753 72 68 1.0 3.0 0.00 0.00 0.00 92 1012.9
20260510074249 72 145 2.0 3.0 0.00 0.00 0.00 92 1012.8
20260510073745 73 20 1.0 3.0 0.00 0.00 0.00 92 1012.8
20260510073242 73 85 1.0 1.0 0.00 0.00 0.00 92 1012.6
20260510072737 73 83 1.0 2.0 0.00 0.00 0.00 92 1012.8
20260510072234 73 73 0.0 3.0 0.00 0.00 0.00 92 1012.8
20260510071731 73 148 2.0 3.0 0.00 0.00 0.00 92 1012.9
20260510071227 73 74 2.0 3.0 0.00 0.00 0.00 92 1012.9
20260510070726 73 104 2.0 4.0 0.00 0.00 0.00 92 1012.8
20260510070223 73 90 2.0 4.0 0.00 0.00 0.00 91 1012.8
20260510065717 73 76 1.0 3.0 0.00 0.00 0.00 91 1013.0
20260510065214 73 90 2.0 3.0 0.00 0.00 0.00 90 1012.9
20260510064711 74 83 1.0 3.0 0.00 0.00 0.00 90 1012.9
20260510064209 74 78 1.0 3.0 0.00 0.00 0.00 90 1012.9
20260510063705 74 120 3.0 7.0 0.00 0.00 0.00 89 1012.8
20260510063201 74 73 1.0 6.0 0.00 0.00 0.00 89 1012.9
20260510062657 74 87 2.0 6.0 0.00 0.00 0.00 89 1013.0
20260510062153 74 105 2.0 3.0 0.00 0.00 0.00 88 1013.1
20260510061648 74 86 2.0 4.0 0.00 0.00 0.00 88 1013.2
20260510061146 74 117 1.0 7.0 0.00 0.00 0.00 87 1013.0
20260510060642 74 87 2.0 3.0 0.00 0.00 0.00 87 1013.0
20260510060139 74 76 2.0 3.0 0.00 0.00 0.00 86 1013.0
20260510055635 74 69 1.0 3.0 0.00 0.00 0.00 86 1013.1
20260510055134 75 140 4.0 6.0 0.00 0.00 0.00 85 1013.2
20260510054629 75 146 1.0 6.0 0.00 0.00 0.00 84 1013.0
20260510054125 75 69 1.0 4.0 0.00 0.00 0.00 83 1013.1
20260510053624 75 96 2.0 3.0 0.00 0.00 0.00 83 1013.1
20260510053121 75 102 2.0 3.0 0.00 0.00 0.00 82 1013.2
20260510052617 75 104 3.0 6.0 0.00 0.00 0.00 81 1013.0
20260510052114 75 79 1.0 3.0 0.00 0.00 0.00 80 1013.1
20260510051609 75 86 2.0 3.0 0.00 0.00 0.00 79 1012.9
20260510051106 76 65 2.0 4.0 0.00 0.00 0.00 78 1013.2
20260510050603 76 77 1.0 6.0 0.00 0.00 0.00 78 1013.4
20260510050100 76 116 2.0 4.0 0.00 0.00 0.00 76 1013.4
20260510045558 77 97 2.0 2.0 0.00 0.00 0.00 75 1013.1
20260510045053 77 148 2.0 3.0 0.00 0.00 0.00 74 1013.0
20260510044550 77 121 2.0 3.0 0.00 0.00 0.00 73 1013.2
20260510044048 78 96 2.0 6.0 0.00 0.00 0.00 73 1013.4
20260510043543 78 108 1.0 7.0 0.00 0.00 0.00 72 1013.2
20260510043039 78 77 1.0 4.0 0.00 0.00 0.00 71 1013.1
20260510042538 78 120 2.0 4.0 0.00 0.00 0.00 71 1013.3
20260510042033 78 80 2.0 4.0 0.00 0.00 0.00 75 1013.4
20260510041531 79 88 2.0 3.0 0.00 0.00 0.00 76 1013.3
20260510041029 79 98 1.0 4.0 0.00 0.00 0.00 77 1013.3
20260510040525 78 89 0.0 2.0 0.00 0.00 0.00 77 1012.9
20260510040021 78 72 0.0 2.0 0.00 0.00 0.00 76 1013.0
20260510035518 78 78 0.0 1.0 0.00 0.00 0.00 77 1013.0
20260510035016 77 73 0.0 0.0 0.00 0.00 0.00 77 1012.9
20260510034516 77 68 0.0 1.0 0.00 0.00 0.00 77 1012.8
20260510034012 77 69 0.0 0.0 0.00 0.00 0.00 77 1012.7
20260510033508 77 67 0.0 0.0 0.00 0.00 0.00 76 1012.7
20260510033006 77 67 0.0 0.0 0.00 0.00 0.00 75 1012.6
20260510032503 78 67 0.0 0.0 0.00 0.00 0.00 74 1012.6
20260510032002 78 69 0.0 0.0 0.00 0.00 0.00 74 1012.4
20260510031458 78 73 0.0 1.0 0.00 0.00 0.00 75 1012.4
20260510030954 78 68 0.0 0.0 0.00 0.00 0.00 74 1012.3
20260510030449 78 72 0.0 1.0 0.00 0.00 0.00 74 1012.2
20260510025947 78 69 0.0 0.0 0.00 0.00 0.00 74 1012.0
20260510025444 78 72 0.0 1.0 0.00 0.00 0.00 76 1012.1
20260510024942 78 71 0.0 0.0 0.00 0.00 0.00 77 1012.0
20260510024438 78 70 0.0 0.0 0.00 0.00 0.00 76 1012.0
20260510023934 78 69 0.0 0.0 0.00 0.00 0.00 75 1012.0
20260510023431 78 64 0.0 0.0 0.00 0.00 0.00 74 1012.0
20260510022928 78 68 0.0 1.0 0.00 0.00 0.00 73 1011.9
20260510022427 79 69 0.0 0.0 0.00 0.00 0.00 71 1011.7
20260510021926 79 69 0.0 0.0 0.00 0.00 0.00 71 1011.7
20260510021424 80 69 0.0 1.0 0.00 0.00 0.00 70 1011.7
20260510020921 79 69 0.0 0.0 0.00 0.00 0.00 71 1011.6
20260510020421 79 72 0.0 0.0 0.00 0.00 0.00 71 1011.6
20260510015917 79 69 0.0 0.0 0.00 0.00 0.00 71 1011.7
20260510015412 79 69 0.0 0.0 0.00 0.00 0.00 71 1011.3
20260510014908 80 65 0.0 0.0 0.00 0.00 0.00 71 1011.3
20260510014406 79 72 0.0 1.0 0.00 0.00 0.00 71 1011.3
20260510013902 80 68 0.0 0.0 0.00 0.00 0.00 71 1011.2
20260510013357 80 69 0.0 0.0 0.00 0.00 0.00 69 1011.1
20260510012852 81 67 0.0 0.0 0.00 0.00 0.00 68 1011.0
20260510012347 81 72 0.0 0.0 0.00 0.00 0.00 67 1011.0
20260510011842 81 69 0.0 0.0 0.00 0.00 0.00 67 1010.9
20260510011338 82 72 0.0 1.0 0.00 0.00 0.00 68 1010.8
20260510010834 82 75 0.0 1.0 0.00 0.00 0.00 71 1010.8
20260510010332 83 71 0.0 0.0 0.00 0.00 0.00 72 1010.8
20260510005828 84 72 0.0 0.0 0.00 0.00 0.00 70 1010.7
20260510005324 84 68 0.0 0.0 0.00 0.00 0.00 69 1010.5
20260510004822 85 70 0.0 0.0 0.00 0.00 0.00 67 1010.5
20260510004320 86 67 0.0 0.0 0.00 0.00 0.00 67 1010.4
20260510003817 88 67 0.0 0.0 0.00 0.00 0.00 64 1010.4
20260510003314 88 64 0.0 0.0 0.00 0.00 0.00 63 1010.2
20260510002813 88 68 0.0 0.0 0.00 0.00 0.00 63 1010.3
20260510002310 88 73 0.0 0.0 0.00 0.00 0.00 63 1010.4
20260510001806 88 66 0.0 0.0 0.00 0.00 0.00 63 1010.4
20260510001305 87 65 0.0 1.0 0.00 0.00 0.00 63 1010.1
20260510000800 87 74 0.0 1.0 0.00 0.00 0.00 62 1010.2
20260510000258 88 90 1.0 1.0 0.00 0.00 0.00 62 1010.3
20260509235755 88 72 0.0 1.0 0.00 0.00 0.00 61 1010.2
20260509235251 88 69 0.0 0.0 0.00 0.00 0.00 59 1010.2
20260509234747 89 66 0.0 1.0 0.00 0.00 0.00 60 1010.3
20260509234244 89 42 0.0 1.0 0.00 0.00 0.00 57 1010.2
20260509233743 90 71 0.0 1.0 0.00 0.00 0.00 56 1010.2
20260509233240 91 52 0.0 1.0 0.00 0.00 0.00 56 1010.3
20260509232736 92 53 0.0 1.0 0.00 0.00 0.00 53 1010.3
20260509232233 91 67 0.0 1.0 0.00 0.00 0.00 58 1010.3
20260509231729 92 64 0.0 1.0 0.00 0.00 0.00 55 1010.0
20260509231227 91 63 0.0 0.0 0.00 0.00 0.00 53 1010.2
20260509230724 90 61 0.0 1.0 0.00 0.00 0.00 55 1010.1
20260509230221 90 48 1.0 3.0 0.00 0.00 0.00 56 1010.1
20260509225716 91 60 1.0 2.0 0.00 0.00 0.00 56 1010.1
20260509225212 92 66 0.0 2.0 0.00 0.00 0.00 56 1009.8
20260509224708 91 57 0.0 0.0 0.00 0.00 0.00 56 1009.9
20260509224205 91 70 0.0 0.0 0.00 0.00 0.00 56 1009.9
20260509223702 91 65 0.0 1.0 0.00 0.00 0.00 58 1009.9
20260509223159 90 63 0.0 1.0 0.00 0.00 0.00 61 1009.8
20260509222656 90 71 1.0 2.0 0.00 0.00 0.00 61 1009.7
20260509222152 89 64 1.0 1.0 0.00 0.00 0.00 62 1009.8
20260509221647 87 61 0.0 0.0 0.00 0.00 0.00 64 1009.5
20260509221143 87 65 0.0 0.0 0.00 0.00 0.00 67 1009.7
20260509220639 87 62 0.0 0.0 0.00 0.00 0.00 66 1009.7
20260509220136 87 63 0.0 0.0 0.00 0.00 0.00 68 1009.7
20260509215632 87 64 0.0 0.0 0.00 0.00 0.00 67 1009.9
20260509215129 86 63 0.0 0.0 0.00 0.00 0.00 66 1010.0
20260509214626 86 51 0.0 0.0 0.00 0.00 0.00 67 1010.0
20260509214122 86 68 0.0 1.0 0.00 0.00 0.00 65 1010.0
20260509213619 86 53 0.0 0.0 0.00 0.00 0.00 64 1010.2
20260509213115 86 60 0.0 1.0 0.00 0.00 0.00 63 1010.4
20260509212613 87 47 0.0 1.0 0.00 0.00 0.00 63 1010.2
20260509212110 88 56 0.0 0.0 0.00 0.00 0.00 62 1010.5
20260509211605 88 67 0.0 1.0 0.00 0.00 0.00 63 1010.3
20260509211102 89 50 2.0 2.0 0.00 0.00 0.00 62 1010.3
20260509210559 90 91 1.0 2.0 0.00 0.00 0.00 60 1010.4
20260509210056 90 67 1.0 1.0 0.00 0.00 0.00 62 1010.2
20260509205555 89 68 0.0 1.0 0.00 0.00 0.00 62 1010.2
20260509205051 90 44 0.0 1.0 0.00 0.00 0.00 61 1010.3
20260509204548 90 49 1.0 1.0 0.00 0.00 0.00 58 1010.2
20260509204044 90 60 0.0 1.0 0.00 0.00 0.00 60 1010.3
20260509203539 90 54 0.0 1.0 0.00 0.00 0.00 59 1010.7
20260509203038 91 58 0.0 1.0 0.00 0.00 0.00 57 1011.0
20260509202533 91 59 0.0 1.0 0.00 0.00 0.00 57 1010.8
20260509202028 91 24 0.0 1.0 0.00 0.00 0.00 58 1010.9
20260509201523 91 51 0.0 1.0 0.00 0.00 0.00 61 1010.9
20260509201021 90 52 0.0 1.0 0.00 0.00 0.00 57 1011.0
20260509200516 91 67 1.0 1.0 0.00 0.00 0.00 59 1011.0
20260509200012 90 67 0.0 0.0 0.00 0.00 0.00 62 1011.1
20260509195502 90 24 2.0 3.0 0.00 0.00 0.00 60 1011.1
20260509195001 89 65 0.0 1.0 0.00 0.00 0.00 62 1011.2
20260509194457 89 32 1.0 2.0 0.00 0.00 0.00 64 1011.1
20260509193954 89 65 0.0 0.0 0.00 0.00 0.00 62 1011.2
20260509193454 89 85 0.0 1.0 0.00 0.00 0.00 61 1011.4
20260509192950 89 57 0.0 0.0 0.00 0.00 0.00 62 1011.2
20260509192447 89 49 1.0 1.0 0.00 0.00 0.00 62 1011.4
20260509191942 89 65 0.0 1.0 0.00 0.00 0.00 67 1011.5
20260509191438 88 62 0.0 1.0 0.00 0.00 0.00 62 1011.5
20260509190934 89 57 1.0 1.0 0.00 0.00 0.00 64 1011.5
20260509190431 89 86 0.0 1.0 0.00 0.00 0.00 62 1011.7
20260509185929 89 72 0.0 1.0 0.00 0.00 0.00 66 1011.5
20260509185426 89 57 0.0 2.0 0.00 0.00 0.00 65 1011.9
20260509184922 89 54 0.0 0.0 0.00 0.00 0.00 68 1011.8
20260509184420 87 57 1.0 1.0 0.00 0.00 0.00 65 1012.0
20260509183917 88 159 1.0 2.0 0.00 0.00 0.00 68 1012.0
20260509183411 87 60 0.0 1.0 0.00 0.00 0.00 71 1012.1
20260509182908 86 68 0.0 1.0 0.00 0.00 0.00 70 1012.1
20260509182404 87 56 0.0 1.0 0.00 0.00 0.00 70 1012.1
20260509181902 87 62 1.0 1.0 0.00 0.00 0.00 68 1012.1
20260509181359 87 54 0.0 0.0 0.00 0.00 0.00 70 1012.4
20260509180856 87 66 0.0 1.0 0.00 0.00 0.00 70 1012.4
20260509180352 86 58 0.0 1.0 0.00 0.00 0.00 71 1012.4
20260509175849 86 64 0.0 2.0 0.00 0.00 0.00 70 1012.4
20260509175345 86 111 1.0 2.0 0.00 0.00 0.00 70 1012.6
20260509174841 86 67 1.0 1.0 0.00 0.00 0.00 73 1012.8
20260509174337 85 54 0.0 1.0 0.00 0.00 0.00 77 1012.7
20260509173833 84 97 0.0 1.0 0.00 0.00 0.00 76 1012.8
20260509173329 82 84 0.0 1.0 0.00 0.00 0.00 82 1013.1
20260509172825 81 66 0.0 0.0 0.00 0.00 0.00 82 1013.0
20260509172322 80 69 0.0 0.0 0.00 0.00 0.00 82 1013.1
20260509171818 81 77 0.0 0.0 0.00 0.00 0.00 82 1013.0
20260509171314 81 70 0.0 0.0 0.00 0.00 0.00 83 1013.0
20260509170810 80 56 0.0 1.0 0.00 0.00 0.00 82 1013.0
20260509170306 81 75 0.0 1.0 0.00 0.00 0.00 82 1012.9
20260509165806 80 65 0.0 0.0 0.00 0.00 0.00 85 1013.0
20260509165301 79 80 0.0 0.0 0.00 0.00 0.00 85 1013.2
20260509164757 79 65 0.0 0.0 0.00 0.00 0.00 86 1013.0
20260509164253 79 61 0.0 0.0 0.00 0.00 0.00 86 1013.2
20260509163750 79 66 0.0 0.0 0.00 0.00 0.00 86 1013.0
20260509163246 79 65 0.0 0.0 0.00 0.00 0.00 87 1013.1
20260509162745 78 66 0.0 0.0 0.00 0.00 0.00 87 1013.2
20260509162239 78 68 0.0 0.0 0.00 0.00 0.00 87 1013.0
20260509161735 78 75 0.0 0.0 0.00 0.00 0.00 88 1013.1
20260509161231 78 65 0.0 0.0 0.00 0.00 0.00 88 1013.2
20260509160726 78 65 0.0 0.0 0.00 0.00 0.00 88 1013.1
20260509160223 78 69 0.0 0.0 0.00 0.00 0.00 88 1013.0
20260509155718 78 66 0.0 0.0 0.00 0.00 0.00 88 1013.1
20260509155215 78 70 0.0 0.0 0.00 0.00 0.00 88 1013.1
20260509154711 78 80 0.0 1.0 0.00 0.00 0.00 89 1013.0
20260509154208 78 58 0.0 0.0 0.00 0.00 0.00 88 1012.9
20260509153705 78 70 0.0 1.0 0.00 0.00 0.00 89 1013.1
20260509153202 78 65 0.0 0.0 0.00 0.00 0.00 89 1013.1
20260509152658 77 66 0.0 0.0 0.00 0.00 0.00 90 1013.0
20260509152155 77 63 0.0 1.0 0.00 0.00 0.00 89 1013.2
20260509151651 77 65 0.0 0.0 0.00 0.00 0.00 90 1013.0
20260509151149 77 71 0.0 1.0 0.00 0.00 0.00 91 1013.1
20260509150647 76 49 1.0 1.0 0.00 0.00 0.00 91 1013.1
20260509150144 76 78 1.0 2.0 0.00 0.00 0.00 91 1013.1
20260509145640 76 66 0.0 0.0 0.00 0.00 0.00 92 1012.8
20260509145136 76 65 0.0 2.0 0.00 0.00 0.00 92 1012.6
20260509144633 75 63 0.0 0.0 0.00 0.00 0.00 92 1012.8
20260509144130 75 64 0.0 0.0 0.00 0.00 0.00 92 1012.3
20260509143627 75 136 1.0 3.0 0.00 0.00 0.00 92 1012.2
20260509143124 75 73 0.0 1.0 0.00 0.00 0.00 93 1012.0
20260509142619 75 80 2.0 4.0 0.00 0.00 0.00 93 1011.7
20260509142116 75 45 0.0 1.0 0.00 0.00 0.00 94 1011.8
20260509141612 75 81 0.0 1.0 0.00 0.00 0.00 94 1012.3
20260509141109 75 74 1.0 3.0 0.00 0.00 0.00 95 1012.0
20260509140606 75 38 0.0 2.0 0.00 0.00 0.00 95 1011.8
20260509140104 75 89 0.0 2.0 0.00 0.00 0.00 95 1011.7
20260509135601 75 73 0.0 1.0 0.00 0.00 0.00 96 1011.7
20260509135058 74 119 1.0 2.0 0.00 0.00 0.00 96 1011.9
20260509134555 74 72 1.0 2.0 0.00 0.00 0.00 96 1012.3
20260509134053 74 86 1.0 2.0 0.00 0.00 0.00 97 1012.2
20260509133549 74 93 1.0 2.0 0.00 0.00 0.00 97 1011.9
20260509133047 73 87 1.0 3.0 0.00 0.00 0.00 97 1012.0
20260509132545 73 75 0.0 1.0 0.00 0.00 0.00 98 1011.9
20260509132043 73 66 0.0 1.0 0.00 0.00 0.00 98 1011.9
20260509131539 73 95 2.0 4.0 0.00 0.00 0.00 98 1012.0
20260509131036 73 72 0.0 1.0 0.00 0.00 0.00 98 1012.2
20260509130531 73 62 0.0 0.0 0.00 0.00 0.00 98 1012.1
20260509130029 73 64 0.0 1.0 0.00 0.00 0.00 99 1011.8
20260509125525 73 72 0.0 0.0 0.00 0.00 0.00 99 1011.8
20260509125022 73 82 2.0 2.0 0.00 0.00 0.00 99 1012.2
20260509124518 73 68 0.0 0.0 0.00 0.00 0.00 99 1011.8
20260509124016 73 75 0.0 1.0 0.00 0.00 0.00 99 1011.9
20260509123513 73 62 0.0 0.0 0.00 0.00 0.00 99 1011.7
20260509123009 73 67 0.0 0.0 0.00 0.00 0.00 99 1011.9
20260509122506 73 70 0.0 0.0 0.00 0.00 0.00 99 1011.8
20260509122003 73 62 0.0 0.0 0.00 0.00 0.00 99 1012.4
20260509121459 73 75 0.0 0.0 0.00 0.00 0.00 99 1012.2
20260509120958 73 56 0.0 0.0 0.00 0.00 0.00 99 1012.4
20260509120455 73 62 0.0 0.0 0.00 0.00 0.00 99 1012.5
20260509115953 73 60 0.0 0.0 0.00 0.00 0.00 99 1012.5
20260509115450 73 67 0.0 0.0 0.00 0.00 0.00 98 1012.3
20260509114948 73 60 0.0 0.0 0.00 0.00 0.00 98 1012.3
20260509114446 73 56 0.0 0.0 0.00 0.00 0.00 98 1012.5
20260509113945 73 67 0.0 0.0 0.00 0.00 0.00 98 1012.3
20260509113442 73 68 0.0 1.0 0.00 0.00 0.00 98 1012.6
20260509112938 73 54 0.0 1.0 0.00 0.00 0.00 98 1012.5
20260509112436 73 39 0.0 1.0 0.00 0.00 0.00 98 1012.5
20260509111932 73 63 0.0 0.0 0.00 0.00 0.00 98 1012.3
20260509111430 73 68 0.0 1.0 0.00 0.00 0.00 98 1012.1
20260509110927 73 64 1.0 1.0 0.00 0.00 0.00 98 1012.1
20260509110423 73 59 0.0 0.0 0.00 0.00 0.00 98 1012.2
20260509105921 73 65 0.0 1.0 0.00 0.00 0.00 98 1012.4
20260509105420 73 64 0.0 0.0 0.00 0.00 0.00 98 1012.3
20260509104916 73 56 0.0 0.0 0.00 0.00 0.00 98 1012.6
20260509104413 73 62 0.0 0.0 0.00 0.00 0.00 98 1012.3
20260509103911 73 66 0.0 0.0 0.00 0.00 0.00 98 1012.5
20260509103407 73 61 0.0 0.0 0.00 0.00 0.00 98 1012.6
20260509102906 73 69 0.0 0.0 0.00 0.00 0.00 98 1012.8
20260509102403 73 65 0.0 0.0 0.00 0.00 0.00 98 1012.7
20260509101859 73 65 0.0 0.0 0.00 0.00 0.00 98 1012.6
20260509101355 73 64 0.0 0.0 0.00 0.00 0.00 97 1012.6
20260509100853 73 64 0.0 0.0 0.00 0.00 0.00 97 1012.7
20260509100350 73 64 0.0 0.0 0.00 0.00 0.00 97 1012.4
20260509095846 73 63 0.0 0.0 0.00 0.00 0.00 97 1012.2
20260509095344 73 64 0.0 0.0 0.00 0.00 0.00 97 1012.3
20260509094841 73 65 0.0 0.0 0.00 0.00 0.00 97 1012.4
20260509094337 73 66 0.0 0.0 0.00 0.00 0.00 97 1012.1
20260509093835 73 67 0.0 1.0 0.00 0.00 0.00 97 1012.0
20260509093332 73 68 0.0 0.0 0.00 0.00 0.00 97 1011.5
20260509092831 73 74 0.0 1.0 0.00 0.00 0.00 97 1011.5
20260509092328 73 74 0.0 1.0 0.00 0.00 0.00 97 1011.9
20260509091826 73 68 0.0 0.0 0.00 0.00 0.00 97 1011.9
20260509091323 73 67 0.0 0.0 0.00 0.00 0.00 97 1011.9
20260509090820 73 62 0.0 0.0 0.00 0.00 0.00 97 1012.2
20260509090317 73 71 0.0 1.0 0.00 0.00 0.00 97 1012.0
20260509085814 73 66 0.0 0.0 0.00 0.00 0.00 97 1012.1
20260509085312 73 78 0.0 0.0 0.00 0.00 0.00 97 1012.2
20260509084808 73 65 0.0 0.0 0.00 0.00 0.00 97 1012.2
20260509084305 73 66 0.0 0.0 0.00 0.00 0.00 97 1012.5
20260509083803 73 65 0.0 0.0 0.00 0.00 0.00 97 1012.5
20260509083259 73 66 0.0 0.0 0.00 0.00 0.00 97 1012.3